EW4052 Weather Reports


time (UTC)temp
F
wind
direction
speed
knots
gust
knots
rain 1hr
in
rain 24hr
in
rain mn
in
humidity
%
barometer
mb
20260906194554 70 43 0.0 6.1 0.00 0.00 0.00 100 1016.2
20260906193050 70 51 0.0 4.3 0.00 0.00 0.00 100 1016.4
20260906191545 70 36 0.0 3.5 0.00 0.00 0.00 100 1016.7
20260906190044 70 28 0.0 1.7 0.00 0.00 0.00 100 1016.7
20260906184537 69 24 0.0 3.5 0.00 0.00 0.00 100 1016.4
20260906183035 69 40 0.0 0.0 0.00 0.00 0.00 100 1016.2
20260906181528 69 92 0.0 0.0 0.00 0.00 0.00 100 1016.3
20260906180046 69 113 0.0 4.3 0.00 0.00 0.00 100 1016.5
20260906174520 69 14 0.0 0.9 0.00 0.00 0.00 100 1016.4
20260906173015 69 61 0.0 2.6 0.00 0.00 0.00 100 1016.8
20260906171510 68 355 0.0 0.0 0.00 0.00 0.00 100 1017.3
20260906170005 68 275 0.0 0.0 0.00 0.00 0.00 100 1017.3
20260906164502 68 19 0.0 0.0 0.00 0.00 0.00 100 1017.1
20260906163107 68 5 0.0 3.5 0.00 0.00 0.00 100 1017.1
20260906161552 68 36 0.0 2.6 0.00 0.00 0.00 100 1017.2
20260906160050 68 13 0.0 3.5 0.00 0.00 0.00 100 1016.9
20260906154542 68 21 0.0 0.0 0.00 0.00 0.00 100 1017.1
20260906153038 68 253 0.0 3.5 0.00 0.00 0.00 100 1016.7
20260906151534 67 51 0.0 6.1 0.00 0.00 0.00 100 1016.5
20260906150032 67 40 0.0 2.6 0.00 0.00 0.00 100 1016.7
20260906144531 67 57 0.0 2.6 0.00 0.00 0.00 100 1016.5
20260906143028 67 10 0.0 5.2 0.00 0.00 0.00 100 1016.7
20260906141515 67 52 0.0 1.7 0.00 0.00 0.00 100 1016.8
20260906140018 67 322 0.0 4.3 0.00 0.00 0.00 100 1016.9
20260906134510 67 31 0.0 1.7 0.00 0.00 0.00 100 1016.8
20260906133006 67 48 0.0 4.3 0.00 0.00 0.00 100 1016.7
20260906131601 67 323 0.0 0.0 0.00 0.00 0.00 100 1016.8
20260906130056 0 316 0.0 0.0 0.00 0.00 0.00 1016.4
20260906124552 0 44 0.0 5.2 0.00 0.00 0.00 1016.1
20260906123047 0 319 0.0 0.9 0.00 0.00 0.00 1016.0
20260906121545 0 274 0.0 2.6 0.00 0.00 0.00 1015.8
20260906120040 0 15 0.0 1.7 0.00 0.00 0.00 1015.4
20260906114534 0 24 0.0 5.2 0.00 0.00 0.00 1015.3
20260906113030 0 206 0.0 0.0 0.00 0.00 0.00 1015.3
20260906111524 0 29 0.0 0.0 0.00 0.00 0.00 1015.3
20260906110020 0 46 0.0 2.6 0.00 0.00 0.00 1015.4
20260906104530 0 36 0.0 1.7 0.00 0.00 0.00 1015.5
20260906103012 0 39 0.0 0.0 0.00 0.00 0.00 1015.4
20260906101507 65 39 0.0 0.0 0.00 0.00 0.00 100 1015.6
20260906100005 66 39 0.0 4.3 0.00 0.00 0.00 100 1015.3
20260906094602 66 180 0.0 0.9 0.00 0.00 0.00 100 1015.4
20260906093054 66 339 0.0 0.0 0.00 0.00 0.00 100 1015.2
20260906091550 66 341 0.0 0.0 0.00 0.00 0.00 100 1015.1
20260906090053 66 340 0.0 0.0 0.00 0.00 0.00 100 1015.1
20260906084548 66 341 0.0 0.0 0.00 0.00 0.00 100 1014.8
20260906083039 66 360 0.0 0.0 0.00 0.00 0.00 100 1014.7
20260906081537 66 360 0.0 0.0 0.00 0.00 0.00 100 1014.8
20260906080036 67 313 0.0 0.0 0.00 0.00 0.00 100 1014.7
20260906074530 67 118 0.0 0.0 0.00 0.00 0.00 100 1014.7
20260906073034 67 128 0.0 0.0 0.00 0.00 0.00 100 1014.8
20260906071520 67 134 0.0 0.0 0.00 0.00 0.00 100 1014.7
20260906070015 67 132 0.0 0.0 0.00 0.00 0.00 100 1015.0
20260906064514 68 136 0.0 0.0 0.00 0.00 0.00 100 1015.1
20260906063007 68 329 0.0 0.0 0.00 0.00 0.00 100 1015.1
20260906061502 68 189 0.0 0.9 0.00 0.00 0.00 100 1015.1
20260906060058 69 243 0.0 0.0 0.00 0.00 0.00 100 1015.2
20260906054552 69 34 0.0 3.5 0.00 0.00 0.00 100 1015.2
20260906053053 69 360 0.0 0.0 0.00 0.00 0.00 100 1015.2
20260906051544 69 5 0.0 0.0 0.00 0.00 0.00 100 1015.1
20260906050042 69 26 0.0 0.0 0.00 0.00 0.00 100 1014.9
20260906044535 70 25 0.0 0.0 0.00 0.00 0.00 100 1014.9
20260906043032 70 355 0.0 0.0 0.00 0.00 0.00 100 1014.7
20260906041526 70 355 0.0 0.0 0.00 0.00 0.00 100 1014.6
20260906040028 71 11 0.0 0.0 0.00 0.00 0.00 100 1014.7
20260906034531 71 24 0.0 0.0 0.00 0.00 0.00 100 1014.5
20260906033024 71 17 0.0 0.0 0.00 0.00 0.00 100 1014.7
20260906031511 71 17 0.0 0.0 0.00 0.00 0.00 100 1014.7
20260906030006 71 31 0.0 0.0 0.00 0.00 0.00 100 1014.7
20260906024502 71 32 0.0 0.0 0.00 0.00 0.00 100 1014.7
20260906023058 71 41 0.0 0.0 0.00 0.00 0.00 100 1014.5
20260906021553 71 41 0.0 0.0 0.00 0.00 0.00 100 1014.5
20260906020050 72 41 0.0 0.0 0.00 0.00 0.00 100 1014.1
20260906014559 72 41 0.0 0.0 0.00 0.00 0.00 100 1013.8
20260906013043 73 41 0.0 0.0 0.00 0.00 0.00 100 1013.5
20260906011540 73 55 0.0 0.0 0.00 0.00 0.00 100 1013.5
20260906010030 74 55 0.0 0.0 0.00 0.00 0.00 13 1013.3
20260906004535 75 55 0.0 0.0 0.00 0.00 0.00 26 1013.3
20260906003032 76 55 0.0 0.0 0.00 0.00 0.00 32 1013.3
20260906001518 76 55 0.0 0.0 0.00 0.00 0.00 41 1013.1
20260906000013 77 55 0.0 0.0 0.00 0.00 0.00 46 1012.9
20260905234508 78 360 0.0 0.0 0.00 0.00 0.00 57 1012.8
20260905233006 79 360 0.0 0.0 0.00 0.00 0.00 62 1012.8
20260905231559 79 360 0.0 0.0 0.00 0.00 0.00 66 1012.6
20260905230054 80 348 0.0 0.0 0.00 0.00 0.00 65 1012.6
20260905224550 80 342 0.0 5.2 0.00 0.00 0.00 68 1012.4
20260905223045 81 10 0.0 0.0 0.00 0.00 0.00 61 1012.1
20260905221542 81 32 0.0 3.5 0.00 0.00 0.00 63 1012.2
20260905220044 81 9 0.0 6.1 0.00 0.00 0.00 57 1012.0
20260905214532 81 21 0.0 1.7 0.00 0.00 0.00 59 1012.0
20260905213038 81 31 0.0 4.3 0.00 0.00 0.00 56 1012.0
20260905211522 81 15 0.0 5.2 0.00 0.00 0.00 54 1012.3
20260905210018 81 360 0.0 6.1 0.00 0.00 0.00 52 1012.4
20260905204517 81 62 0.0 5.2 0.00 0.00 0.00 54 1012.4
20260905203009 81 19 0.0 7.8 0.00 0.00 0.00 53 1012.4
20260905201504 81 59 0.9 5.2 0.00 0.00 0.00 49 1012.4
20260905200106 80 360 1.7 5.2 0.00 0.00 0.00 45 1012.3